Active alerts


No alerts


weather webcam more information weather webcam


Thunder radar more information blitzortung!


Rain radar more information rain snow radar


Visit our other weather sites:

Template documentation
and downloads

And another site


Weather Underground History page Text

Daily Summary for August 15, 2018 Units:  English    Metric   Both
« Previous Day
Next Day »
Daily Weekly Monthly Yearly Custom
  Current: High: Low: Average:
Temperature: 80.6 °F TemperatureF °F 65.8 °F 69.9 °F
Dew Point: 67.7 °F DewpointF °F 61.7 °F 63.3 °F
Humidity: 65 % Humidity % 61 % 79 %
Wind Speed: 2 mph WindSpeedMPH mph 0 mph 1.4 mph
Wind Gust: 4 mph WindSpeedGustMPH mph - -
Wind:NW - - SSW
Pressure: 29.91 in PressureIn in 29.88 in -
Precipitation: 0 in      
Historical Graphs
 
 
Tabular Data for August 15, 2018
Time Temperature Dew Point Pressure Wind Wind Speed Wind Gust Humidity Rainfall Rate (Hourly)
TemperatureF °F DewpointF °F PressureIn in Calm     Humidity % HourlyPrecipIn in
00:04 72.8 °F 65.9 °F 29.89 in NNE 1 mph 3 mph 79 % 0 in
00:09 72.7 °F 65.8 °F 29.89 in Calm   4 mph 79 % 0 in
00:14 72.6 °F 65.7 °F 29.89 in Calm   4 mph 79 % 0 in
00:19 72.6 °F 65.7 °F 29.89 in North 1 mph 4 mph 79 % 0 in
00:24 72.6 °F 65.7 °F 29.89 in NE 4 mph 5 mph 79 % 0 in
00:29 72.5 °F 65.6 °F 29.89 in North 1 mph 5 mph 79 % 0 in
00:34 72.4 °F 65.5 °F 29.89 in Calm   4 mph 79 % 0 in
00:39 72.3 °F 65.8 °F 29.89 in NNW 2 mph 4 mph 80 % 0 in
00:44 72.1 °F 65.6 °F 29.89 in NNW 2 mph 4 mph 80 % 0 in
00:49 72 °F 65.1 °F 29.89 in North 2 mph 4 mph 79 % 0 in
00:54 71.9 °F 65.4 °F 29.89 in NNW 3 mph 4 mph 80 % 0 in
00:59 71.7 °F 64.8 °F 29.89 in Calm   5 mph 79 % 0 in
01:04 71.6 °F 65.1 °F 29.89 in Calm   5 mph 80 % 0 in
01:09 71.5 °F 64.6 °F 29.89 in Calm   3 mph 79 % 0 in
01:14 71.4 °F 64.9 °F 29.89 in Calm   3 mph 80 % 0 in
01:19 71.2 °F 64.7 °F 29.89 in NNW 2 mph 3 mph 80 % 0 in
01:24 71.1 °F 64.6 °F 29.89 in Calm   3 mph 80 % 0 in
01:29 71 °F 64.2 °F 29.89 in Calm   3 mph 79 % 0 in
01:34 70.9 °F 64.4 °F 29.89 in Calm   3 mph 80 % 0 in
01:39 70.8 °F 64.3 °F 29.89 in Calm   3 mph 80 % 0 in
01:44 70.8 °F 64.3 °F 29.89 in Calm   2 mph 80 % 0 in
01:49 70.8 °F 64.3 °F 29.89 in Calm   2 mph 80 % 0 in
01:54 70.8 °F 64 °F 29.89 in Calm   1 mph 79 % 0 in
01:59 70.8 °F 64 °F 29.89 in NNW 1 mph 4 mph 79 % 0 in
02:04 70.8 °F 64 °F 29.89 in North 2 mph 4 mph 79 % 0 in
02:09 70.7 °F 63.9 °F 29.89 in NNE 2 mph 4 mph 79 % 0 in
02:14 70.7 °F 63.9 °F 29.89 in NNW 1 mph 8 mph 79 % 0 in
02:19 70.6 °F 63.8 °F 29.89 in Calm   8 mph 79 % 0 in
02:24 70.5 °F 64 °F 29.89 in NNW 1 mph 8 mph 80 % 0 in
02:29 70.5 °F 63.7 °F 29.89 in Calm   8 mph 79 % 0 in
02:34 70.3 °F 63.8 °F 29.89 in Calm   2 mph 80 % 0 in
02:39 70.1 °F 63.6 °F 29.89 in North 1 mph 2 mph 80 % 0 in
02:44 70 °F 63.9 °F 29.89 in NW 2 mph 3 mph 81 % 0 in
02:49 69.8 °F 63.7 °F 29.89 in Calm   3 mph 81 % 0 in
02:54 69.7 °F 63.6 °F 29.89 in Calm   3 mph 81 % 0 in
02:59 69.6 °F 63.5 °F 29.89 in NNW 4 mph 4 mph 81 % 0 in
03:04 69.5 °F 63.4 °F 29.89 in North 1 mph 4 mph 81 % 0 in
03:09 69.4 °F 63.3 °F 29.89 in NNE 2 mph 7 mph 81 % 0 in
03:14 69.3 °F 63.6 °F 29.88 in NNE 3 mph 7 mph 82 % 0 in
03:19 69.3 °F 63.6 °F 29.88 in North 2 mph 5 mph 82 % 0 in
03:24 69.2 °F 63.5 °F 29.88 in NNE 3 mph 4 mph 82 % 0 in
03:29 69.1 °F 63.4 °F 29.88 in NNW 4 mph 5 mph 82 % 0 in
03:34 69.1 °F 63.4 °F 29.88 in NNE 3 mph 9 mph 82 % 0 in
03:39 69 °F 63.3 °F 29.88 in NE 4 mph 9 mph 82 % 0 in
03:44 69 °F 63.3 °F 29.88 in NE 2 mph 8 mph 82 % 0 in
03:49 69 °F 63.3 °F 29.88 in NE 2 mph 9 mph 82 % 0 in
03:54 69 °F 63.3 °F 29.88 in NNE 1 mph 9 mph 82 % 0 in
03:59 68.9 °F 63.2 °F 29.88 in Calm   6 mph 82 % 0 in
04:04 68.8 °F 63.1 °F 29.88 in Calm   5 mph 82 % 0 in
04:09 68.7 °F 63 °F 29.88 in Calm   5 mph 82 % 0 in
04:14 68.6 °F 63.2 °F 29.88 in Calm   4 mph 83 % 0 in
04:19 68.4 °F 63 °F 29.88 in NNE 2 mph 4 mph 83 % 0 in
04:24 68.3 °F 62.9 °F 29.88 in NNW 1 mph 4 mph 83 % 0 in
04:29 68.3 °F 62.9 °F 29.88 in Calm   4 mph 83 % 0 in
04:34 68.1 °F 62.7 °F 29.89 in Calm   4 mph 83 % 0 in
04:39 68 °F 63 °F 29.89 in Calm   4 mph 84 % 0 in
04:44 67.9 °F 62.9 °F 29.89 in Calm   2 mph 84 % 0 in
04:49 67.8 °F 62.8 °F 29.89 in Calm   1 mph 84 % 0 in
04:54 67.6 °F 62.6 °F 29.90 in Calm   1 mph 84 % 0 in
04:59 67.5 °F 62.5 °F 29.90 in Calm   1 mph 84 % 0 in
05:04 67.4 °F 62.7 °F 29.90 in Calm     85 % 0 in
05:09 67.3 °F 63 °F 29.90 in Calm   3 mph 86 % 0 in
05:14 67.3 °F 63 °F 29.90 in Calm   3 mph 86 % 0 in
05:19 67.2 °F 62.5 °F 29.90 in Calm     85 % 0 in
05:24 67.1 °F 62.4 °F 29.90 in Calm     85 % 0 in
05:29 67 °F 62.3 °F 29.90 in Calm     85 % 0 in
05:34 66.9 °F 62.6 °F 29.90 in Calm   3 mph 86 % 0 in
05:39 66.7 °F 62.4 °F 29.90 in Calm   3 mph 86 % 0 in
05:44 66.6 °F 62.3 °F 29.90 in Calm     86 % 0 in
05:49 66.5 °F 62.2 °F 29.90 in Calm     86 % 0 in
05:54 66.3 °F 62 °F 29.90 in Calm     86 % 0 in
05:59 66.2 °F 62.2 °F 29.90 in Calm   1 mph 87 % 0 in
06:04 66 °F 62 °F 29.90 in NW 2 mph 3 mph 87 % 0 in
06:09 66 °F 62.3 °F 29.90 in NNW 1 mph 3 mph 88 % 0 in
06:14 65.9 °F 61.9 °F 29.90 in NNW 2 mph 3 mph 87 % 0 in
06:19 65.8 °F 61.8 °F 29.90 in NNW 3 mph 4 mph 87 % 0 in
06:24 65.8 °F 62.1 °F 29.90 in North 3 mph 5 mph 88 % 0 in
06:29 65.8 °F 61.8 °F 29.90 in NNE 2 mph 5 mph 87 % 0 in
06:34 65.8 °F 61.8 °F 29.90 in NNW 3 mph 7 mph 87 % 0 in
06:39 65.8 °F 61.8 °F 29.90 in NW 3 mph 7 mph 87 % 0 in
06:44 65.9 °F 61.9 °F 29.90 in Calm   8 mph 87 % 0 in
06:49 65.9 °F 61.9 °F 29.91 in NNW 3 mph 8 mph 87 % 0 in
06:54 65.9 °F 61.9 °F 29.91 in NNE 2 mph 6 mph 87 % 0 in
06:59 65.9 °F 61.9 °F 29.91 in NE 5 mph 8 mph 87 % 0 in
07:04 66 °F 61.7 °F 29.91 in NNE 4 mph 8 mph 86 % 0 in
07:09 66 °F 61.7 °F 29.90 in NE 2 mph 7 mph 86 % 0 in
07:14 66.1 °F 61.8 °F 29.90 in NE 1 mph 7 mph 86 % 0 in
07:19 66.1 °F 61.8 °F 29.91 in Calm   6 mph 86 % 0 in
07:24 66.2 °F 61.9 °F 29.91 in NW 2 mph 6 mph 86 % 0 in
07:29 66.2 °F 61.9 °F 29.91 in North 1 mph 6 mph 86 % 0 in
07:34 66.3 °F 61.7 °F 29.91 in NNE 4 mph 6 mph 85 % 0 in
07:39 66.4 °F 61.8 °F 29.92 in NNE 1 mph 6 mph 85 % 0 in
07:44 66.6 °F 61.9 °F 29.91 in Calm   6 mph 85 % 0 in
07:49 66.8 °F 61.8 °F 29.92 in North 3 mph 6 mph 84 % 0 in
07:54 67 °F 62 °F 29.92 in NNE 2 mph 5 mph 84 % 0 in
07:59 67.1 °F 62.1 °F 29.92 in NE 2 mph 5 mph 84 % 0 in
08:04 67.3 °F 62 °F 29.92 in NW 1 mph 8 mph 83 % 0 in
08:09 67.4 °F 62.1 °F 29.92 in North 3 mph 8 mph 83 % 0 in
08:14 67.6 °F 62.3 °F 29.92 in NNW 2 mph 5 mph 83 % 0 in
08:19 67.7 °F 62.3 °F 29.92 in NNW 3 mph 4 mph 83 % 0 in
08:24 68 °F 62.6 °F 29.92 in Calm   4 mph 83 % 0 in
08:29 68.1 °F 62.7 °F 29.92 in NW 2 mph 4 mph 83 % 0 in
08:34 68.3 °F 62.6 °F 29.92 in Calm   3 mph 82 % 0 in
08:39 68.5 °F 63.1 °F 29.92 in NW 1 mph 3 mph 83 % 0 in
08:44 68.8 °F 63.1 °F 29.92 in North 3 mph 4 mph 82 % 0 in
08:49 69 °F 63.3 °F 29.92 in Calm   4 mph 82 % 0 in
08:54 69.1 °F 63.7 °F 29.92 in NNW 1 mph 4 mph 83 % 0 in
08:59 69.2 °F 63.5 °F 29.92 in North 3 mph 4 mph 82 % 0 in
09:04 69.4 °F 63.7 °F 29.92 in NW 3 mph 5 mph 82 % 0 in
09:09 69.7 °F 64.3 °F 29.92 in NNW 2 mph 6 mph 83 % 0 in
09:14 69.9 °F 63.4 °F 29.92 in NE 4 mph 8 mph 80 % 0 in
09:19 70.2 °F 63 °F 29.92 in North 5 mph 10 mph 78 % 0 in
09:24 70.5 °F 62.9 °F 29.92 in NE 1 mph 10 mph 77 % 0 in
09:29 70.8 °F 63.2 °F 29.92 in NNW 3 mph 12 mph 77 % 0 in
09:34 71.2 °F 63.2 °F 29.92 in NNW 3 mph 12 mph 76 % 0 in
09:39 71.4 °F 63.4 °F 29.92 in Calm   6 mph 76 % 0 in
09:44 71.6 °F 63.3 °F 29.91 in Calm   7 mph 75 % 0 in
09:49 71.9 °F 63.9 °F 29.91 in NNE 1 mph 7 mph 76 % 0 in
09:54 72.3 °F 63.9 °F 29.91 in Calm   5 mph 75 % 0 in
09:59 72.6 °F 64.2 °F 29.91 in SSE 1 mph 4 mph 75 % 0 in
10:04 72.8 °F 64 °F 29.91 in Calm   4 mph 74 % 0 in
10:09 73.2 °F 64.8 °F 29.91 in ESE 2 mph 5 mph 75 % 0 in
10:14 73.4 °F 65.4 °F 29.91 in NNE 3 mph 5 mph 76 % 0 in
10:19 73.8 °F 65 °F 29.91 in Calm   7 mph 74 % 0 in
10:24 74.1 °F 64.9 °F 29.91 in NNW 2 mph 7 mph 73 % 0 in
10:29 74.8 °F 65.2 °F 29.91 in ENE 2 mph 10 mph 72 % 0 in
10:34 75.3 °F 65.6 °F 29.91 in NNW 3 mph 10 mph 72 % 0 in
10:39 76.1 °F 66 °F 29.91 in NNE 2 mph 8 mph 71 % 0 in
10:44 76.6 °F 65.7 °F 29.91 in NNW 4 mph 6 mph 69 % 0 in
10:49 77 °F 66.9 °F 29.91 in NNE 2 mph 6 mph 71 % 0 in
10:54 77.3 °F 65.9 °F 29.92 in NNW 8 mph 8 mph 68 % 0 in
10:59 77.5 °F 65.7 °F 29.91 in Calm   8 mph 67 % 0 in
11:04 78 °F 66.2 °F 29.91 in NNE 2 mph 8 mph 67 % 0 in
11:09 78.2 °F 65.9 °F 29.92 in NW 5 mph 9 mph 66 % 0 in
11:14 78.4 °F 66.1 °F 29.91 in NNW 2 mph 9 mph 66 % 0 in
11:19 78.8 °F 66.9 °F 29.91 in NW 1 mph 7 mph 67 % 0 in
11:24 79.1 °F 66.3 °F 29.91 in West 4 mph 7 mph 65 % 0 in
11:29 79.7 °F 67.3 °F 29.91 in NW 1 mph 4 mph 66 % 0 in
11:34 79.9 °F 67.5 °F 29.91 in North 5 mph 8 mph 66 % 0 in
11:39 80.2 °F 66 °F 29.91 in Calm   8 mph 62 % 0 in
11:44 80.5 °F 66.7 °F 29.91 in NNW 1 mph 5 mph 63 % 0 in
11:49 80.5 °F 65.8 °F 29.91 in NE 2 mph 11 mph 61 % 0 in
11:54 80.4 °F 65.7 °F 29.91 in NNE 3 mph 11 mph 61 % 0 in
11:59 80.3 °F 67.5 °F 29.91 in Calm   8 mph 65 % 0 in
12:04 80.6 °F 67.7 °F 29.91 in NW 2 mph 4 mph 65 % 0 in
Edina, Minnesota
Compliments of Weather Underground - 4 mb

Script developed by  Jim McMurry - jmcmurry@mwt.net Adapted for the template by  Wim van der Kuil - Leuven-Template.eu

You find our weather info also at:

Weather Underground

Midwestern Weather Network

Citizen Weather Observer Program (CWOP)

HAMweather, WeatherForYou, PWS Weather

Equipment we use:

Weather-station
Davis VP2

Weather-program
Cumulus

Davis VP2

Cumulus